Time,TemperatureF,DewpointF,PressureIn,WindDirection,WindDirectionDegrees,WindSpeedMPH,WindSpeedGustMPH,Humidity,HourlyPrecipIn,Conditions,Clouds,dailyrainin,SoftwareType,DateUTC
2013-05-21 00:01:00,69.3,59.1,29.12,WSW,248,0.0,0.0,70,0.00,,,0.00,WSDL version 420,2013-05-21 04:01:00,
2013-05-21 00:03:00,69.3,59.1,29.12,WSW,248,0.0,0.0,70,0.00,,,0.00,WSDL version 420,2013-05-21 04:03:00,
2013-05-21 00:07:00,69.4,59.2,29.12,SSW,203,0.0,0.0,70,-99.99,,,-99.99,WSDL version 420,2013-05-21 04:07:00,
2013-05-21 00:11:00,69.5,59.5,29.12,SW,221,0.0,1.1,71,0.00,,,0.00,WSDL version 420,2013-05-21 04:11:00,
2013-05-21 00:17:00,69.6,59.8,29.12,SW,225,0.0,1.1,71,0.00,,,0.00,WSDL version 420,2013-05-21 04:17:00,
2013-05-21 00:23:00,69.8,59.7,29.12,SSW,210,0.0,0.0,71,-99.99,,,-99.99,WSDL version 420,2013-05-21 04:23:00,
2013-05-21 00:29:00,70.0,60.2,29.12,SSW,203,0.0,1.3,71,0.00,,,0.00,WSDL version 420,2013-05-21 04:29:00,
2013-05-21 00:33:00,70.0,60.0,29.12,SW,225,0.0,1.3,70,0.00,,,0.00,WSDL version 420,2013-05-21 04:33:00,
2013-05-21 00:39:00,70.0,59.8,29.12,SSW,210,0.0,0.9,70,0.00,,,0.00,WSDL version 420,2013-05-21 04:39:00,
2013-05-21 00:46:00,70.0,59.8,29.12,SW,225,0.0,0.0,70,0.00,,,0.00,WSDL version 420,2013-05-21 04:46:00,
2013-05-21 00:52:00,70.1,59.9,29.12,SW,219,0.0,1.1,70,0.00,,,0.00,WSDL version 420,2013-05-21 04:52:00,
2013-05-21 00:58:00,70.2,59.9,29.09,SW,225,0.0,1.1,70,-99.99,,,-99.99,WSDL version 420,2013-05-21 04:58:00,
2013-05-21 01:04:00,70.2,60.0,29.09,SW,214,0.0,1.1,71,0.00,,,0.00,WSDL version 420,2013-05-21 05:04:00,
2013-05-21 01:10:00,70.2,60.2,29.09,SSW,206,0.0,1.1,70,-99.99,,,-99.99,WSDL version 420,2013-05-21 05:10:00,
2013-05-21 01:16:00,70.2,60.3,29.09,SW,225,0.0,0.0,71,0.00,,,0.00,WSDL version 420,2013-05-21 05:16:00,
2013-05-21 01:22:00,70.2,60.3,29.09,SW,225,0.0,0.0,71,0.00,,,0.00,WSDL version 420,2013-05-21 05:22:00,
2013-05-21 01:28:00,70.2,60.3,29.09,SSW,203,0.0,0.0,71,0.00,,,0.00,WSDL version 420,2013-05-21 05:28:00,
2013-05-21 01:34:00,70.3,60.4,29.09,SSW,199,0.1,2.9,71,0.00,,,0.00,WSDL version 420,2013-05-21 05:34:00,
2013-05-21 01:40:00,70.4,60.6,29.09,SSW,210,0.0,2.0,71,0.00,,,0.00,WSDL version 420,2013-05-21 05:40:00,
2013-05-21 01:46:00,70.6,60.7,29.09,SW,221,0.4,2.0,71,-99.99,,,-99.99,WSDL version 420,2013-05-21 05:46:00,
2013-05-21 01:51:00,70.6,60.8,29.09,SSW,210,0.9,2.5,71,0.00,,,0.00,WSDL version 420,2013-05-21 05:51:00,
2013-05-21 01:57:00,70.5,60.3,29.09,SW,234,0.0,2.5,70,0.00,,,0.00,WSDL version 420,2013-05-21 05:57:00,
2013-05-21 02:03:00,70.3,60.1,29.09,SW,225,0.0,1.3,70,0.00,,,0.00,WSDL version 420,2013-05-21 06:03:00,
2013-05-21 02:09:00,70.1,59.9,29.09,SSW,203,0.0,0.0,70,0.00,,,0.00,WSDL version 420,2013-05-21 06:09:00,
2013-05-21 02:15:00,69.9,59.7,29.09,North,356,0.0,1.3,70,0.00,,,0.00,WSDL version 420,2013-05-21 06:15:00,
2013-05-21 02:20:00,70.5,61.1,29.09,NW,323,0.7,2.2,72,0.00,,,0.00,WSDL version 420,2013-05-21 06:20:00,
2013-05-21 02:26:00,71.1,61.3,29.09,NNW,329,2.4,3.8,70,0.00,,,0.00,WSDL version 420,2013-05-21 06:26:00,
2013-05-21 02:32:00,71.2,60.6,29.09,NE,49,0.4,3.8,69,0.00,,,0.00,WSDL version 420,2013-05-21 06:32:00,
2013-05-21 02:38:00,71.0,59.8,29.09,North,356,0.8,3.1,67,-99.99,,,-99.99,WSDL version 420,2013-05-21 06:38:00,
2013-05-21 02:44:00,70.6,59.0,29.09,NNW,331,0.2,2.7,66,-99.99,,,-99.99,WSDL version 420,2013-05-21 06:44:00,
2013-05-21 02:50:00,70.4,58.5,29.09,NNW,345,1.0,2.0,66,0.00,,,0.00,WSDL version 420,2013-05-21 06:50:00,
2013-05-21 02:56:00,70.1,58.0,29.09,NNW,343,0.1,2.0,65,0.00,,,0.00,WSDL version 420,2013-05-21 06:56:00,
2013-05-21 03:01:00,69.7,57.5,29.09,NNW,338,0.0,2.0,65,0.00,,,0.00,WSDL version 420,2013-05-21 07:01:00,
2013-05-21 03:07:00,69.4,57.3,29.09,NNW,331,0.0,1.3,65,-99.99,,,-99.99,WSDL version 420,2013-05-21 07:07:00,
2013-05-21 03:13:00,69.1,56.7,29.09,East,84,0.0,0.0,64,0.00,,,0.00,WSDL version 420,2013-05-21 07:13:00,
2013-05-21 03:19:00,68.7,56.1,29.09,East,90,0.0,0.0,64,0.00,,,0.00,WSDL version 420,2013-05-21 07:19:00,
2013-05-21 03:25:00,68.4,56.2,29.09,East,90,0.0,0.0,65,0.00,,,0.00,WSDL version 420,2013-05-21 07:25:00,
2013-05-21 03:31:00,68.0,56.1,29.09,NNE,23,0.0,0.0,66,0.00,,,0.00,WSDL version 420,2013-05-21 07:31:00,
2013-05-21 03:37:00,67.7,56.2,29.09,East,90,0.0,0.0,67,0.00,,,0.00,WSDL version 420,2013-05-21 07:37:00,
2013-05-21 03:43:00,67.4,56.3,29.09,ENE,68,0.0,0.0,68,0.00,,,0.00,WSDL version 420,2013-05-21 07:43:00,
2013-05-21 03:49:00,67.0,56.1,29.09,SSE,158,0.0,0.0,68,0.00,,,0.00,WSDL version 420,2013-05-21 07:49:00,
2013-05-21 03:55:00,66.6,55.9,29.12,SSE,158,0.0,0.0,68,0.00,,,0.00,WSDL version 420,2013-05-21 07:55:00,
2013-05-21 04:01:00,66.5,55.7,29.12,ESE,113,0.0,0.0,69,0.00,,,0.00,WSDL version 420,2013-05-21 08:01:00,
2013-05-21 04:07:00,66.2,55.8,29.12,NE,45,0.0,0.0,69,-99.99,,,-99.99,WSDL version 420,2013-05-21 08:07:00,
2013-05-21 04:13:00,66.1,56.1,29.09,NE,45,0.0,0.0,70,0.00,,,0.00,WSDL version 420,2013-05-21 08:13:00,
2013-05-21 04:22:00,66.0,56.7,29.09,SE,128,0.0,0.0,72,0.00,,,0.00,WSDL version 420,2013-05-21 08:22:00,
2013-05-21 04:28:00,66.0,56.7,29.09,NNW,338,0.0,0.0,72,-99.99,,,-99.99,WSDL version 420,2013-05-21 08:28:00,
2013-05-21 04:34:00,66.0,57.1,29.09,NW,321,0.0,0.0,73,0.00,,,0.00,WSDL version 420,2013-05-21 08:34:00,
2013-05-21 04:40:00,65.8,57.3,29.09,WSW,248,0.0,0.0,74,0.00,,,0.00,WSDL version 420,2013-05-21 08:40:00,
2013-05-21 04:47:00,65.4,56.9,29.09,SW,225,0.0,0.0,74,-99.99,,,-99.99,WSDL version 420,2013-05-21 08:47:00,
2013-05-21 04:53:00,65.2,56.8,29.09,WNW,293,0.0,0.0,74,-99.99,,,-99.99,WSDL version 420,2013-05-21 08:53:00,
2013-05-21 04:59:00,64.9,57.1,29.09,SSW,203,0.0,0.0,76,0.00,,,0.00,WSDL version 420,2013-05-21 08:59:00,
2013-05-21 05:05:00,64.8,57.0,29.09,SSW,203,0.0,0.0,76,0.00,,,0.00,WSDL version 420,2013-05-21 09:05:00,
2013-05-21 05:11:00,64.5,56.8,29.09,SSW,203,0.0,0.0,76,0.00,,,0.00,WSDL version 420,2013-05-21 09:11:00,
2013-05-21 05:17:00,64.4,57.0,29.09,SSW,203,0.0,0.0,77,0.00,,,0.00,WSDL version 420,2013-05-21 09:17:00,
2013-05-21 05:23:00,64.2,57.2,29.09,SSW,203,0.0,0.0,78,0.00,,,0.00,WSDL version 420,2013-05-21 09:23:00,
2013-05-21 05:29:00,64.2,57.3,29.09,SSW,203,0.0,0.0,78,0.00,,,0.00,WSDL version 420,2013-05-21 09:29:00,
2013-05-21 05:37:00,64.2,57.6,29.09,SSW,203,0.0,0.0,79,0.00,,,0.00,WSDL version 420,2013-05-21 09:37:00,
2013-05-21 05:43:00,64.2,57.6,29.09,SSW,203,0.0,0.0,79,0.00,,,0.00,WSDL version 420,2013-05-21 09:43:00,
2013-05-21 05:48:00,64.2,57.9,29.09,SSW,203,0.0,0.0,80,0.00,,,0.00,WSDL version 420,2013-05-21 09:48:00,
2013-05-21 05:56:00,64.2,57.9,29.06,SSW,203,0.0,0.0,80,-99.99,,,-99.99,WSDL version 420,2013-05-21 09:56:00,
2013-05-21 06:02:00,64.2,57.9,-100.00,SSW,203,0.0,0.0,80,0.00,,,0.00,WSDL version 420,2013-05-21 10:02:00,
2013-05-21 06:08:00,64.2,57.9,29.06,SSW,203,0.0,0.0,80,0.00,,,0.00,WSDL version 420,2013-05-21 10:08:00,
2013-05-21 06:14:00,64.2,57.9,-100.00,SSW,203,0.0,0.0,80,-99.99,,,-99.99,WSDL version 420,2013-05-21 10:14:00,
2013-05-21 06:21:00,64.2,58.3,29.09,SSW,203,0.0,0.0,81,0.00,,,0.00,WSDL version 420,2013-05-21 10:21:00,
2013-05-21 06:27:00,64.2,58.3,29.09,SSW,203,0.0,1.1,81,0.00,,,0.00,WSDL version 420,2013-05-21 10:27:00,
2013-05-21 06:33:00,64.2,58.4,29.09,SSW,203,0.0,0.0,81,0.00,,,0.00,WSDL version 420,2013-05-21 10:33:00,
2013-05-21 06:39:00,64.2,58.7,29.09,SSW,203,0.0,0.0,82,0.00,,,0.00,WSDL version 420,2013-05-21 10:39:00,
2013-05-21 06:44:00,64.4,58.5,29.09,SSW,203,0.0,0.0,81,0.00,,,0.00,WSDL version 420,2013-05-21 10:44:00,
2013-05-21 06:50:00,64.4,58.9,29.09,SSW,203,0.0,0.0,82,0.00,,,0.00,WSDL version 420,2013-05-21 10:50:00,
2013-05-21 06:55:00,64.5,59.0,29.09,SSW,203,0.0,0.0,82,0.00,,,0.00,WSDL version 420,2013-05-21 10:55:00,
2013-05-21 07:08:00,65.1,59.6,29.09,SSW,203,0.0,0.0,82,-99.99,,,-99.99,WSDL version 420,2013-05-21 11:08:00,
2013-05-21 07:14:00,65.5,60.3,29.12,SW,219,0.0,0.9,83,-99.99,,,-99.99,WSDL version 420,2013-05-21 11:14:00,
2013-05-21 07:19:00,66.1,61.1,29.12,SW,230,0.0,0.9,84,0.00,,,0.00,WSDL version 420,2013-05-21 11:19:00,
2013-05-21 07:27:00,67.0,61.8,29.12,SW,235,0.0,2.0,83,0.00,,,0.00,WSDL version 420,2013-05-21 11:27:00,
2013-05-21 07:34:00,67.3,61.7,29.12,WSW,248,0.0,0.0,82,0.00,,,0.00,WSDL version 420,2013-05-21 11:34:00,
2013-05-21 07:40:00,67.5,61.5,29.12,WSW,248,0.0,0.0,81,0.00,,,0.00,WSDL version 420,2013-05-21 11:40:00,
2013-05-21 07:46:00,67.9,61.9,29.12,SSW,206,0.0,0.0,81,-99.99,,,-99.99,WSDL version 420,2013-05-21 11:46:00,
2013-05-21 07:52:00,68.7,62.6,29.12,SW,219,0.0,1.1,81,0.00,,,0.00,WSDL version 420,2013-05-21 11:52:00,
2013-05-21 07:58:00,69.3,63.2,29.12,WSW,248,0.5,2.9,80,0.00,,,0.00,WSDL version 420,2013-05-21 11:58:00,
2013-05-21 08:04:00,70.0,63.3,29.12,SSW,212,0.1,2.9,79,-99.99,,,-99.99,WSDL version 420,2013-05-21 12:04:00,
2013-05-21 08:13:00,71.2,63.3,29.09,SW,214,0.3,2.5,76,0.00,,,0.00,WSDL version 420,2013-05-21 12:13:00,
2013-05-21 08:19:00,71.5,63.4,29.09,SW,229,0.4,2.2,75,0.00,,,0.00,WSDL version 420,2013-05-21 12:19:00,
2013-05-21 08:25:00,72.1,63.4,29.09,SW,231,0.4,2.2,74,-99.99,,,-99.99,WSDL version 420,2013-05-21 12:25:00,
2013-05-21 08:31:00,72.9,63.5,29.12,West,260,0.9,2.7,72,0.00,,,0.00,WSDL version 420,2013-05-21 12:31:00,
2013-05-21 08:37:00,73.8,63.6,29.12,SW,231,0.3,2.7,70,0.00,,,0.00,WSDL version 420,2013-05-21 12:37:00,
2013-05-21 08:43:00,75.0,64.0,29.09,WSW,238,0.9,2.0,68,0.00,,,0.00,WSDL version 420,2013-05-21 12:43:00,
2013-05-21 08:49:00,76.1,64.5,29.09,SW,225,0.0,2.0,67,0.00,,,0.00,WSDL version 420,2013-05-21 12:49:00,
2013-05-21 08:54:00,77.9,65.2,29.09,WSW,248,0.6,2.0,65,0.00,,,0.00,WSDL version 420,2013-05-21 12:54:00,
2013-05-21 09:00:00,78.6,65.2,29.09,SSW,208,0.2,2.0,63,0.00,,,0.00,WSDL version 420,2013-05-21 13:00:00,
2013-05-21 09:06:00,79.7,65.2,29.09,WSW,248,0.0,2.0,61,0.00,,,0.00,WSDL version 420,2013-05-21 13:06:00,
2013-05-21 09:12:00,80.7,65.1,29.09,West,259,0.0,1.6,58,-99.99,,,-99.99,WSDL version 420,2013-05-21 13:12:00,
2013-05-21 09:19:00,82.2,65.6,29.09,WSW,255,0.0,0.0,56,-99.99,,,-99.99,WSDL version 420,2013-05-21 13:19:00,
2013-05-21 09:25:00,82.7,63.8,29.09,SW,221,0.0,2.5,53,0.00,,,0.00,WSDL version 420,2013-05-21 13:25:00,
2013-05-21 09:31:00,83.3,63.2,29.09,SSW,203,0.7,2.9,50,0.00,,,0.00,WSDL version 420,2013-05-21 13:31:00,
2013-05-21 09:37:00,83.8,63.3,29.09,WNW,288,0.0,2.9,50,0.00,,,0.00,WSDL version 420,2013-05-21 13:37:00,
2013-05-21 09:43:00,84.6,63.1,29.09,SSW,197,0.4,2.7,48,0.00,,,0.00,WSDL version 420,2013-05-21 13:43:00,
2013-05-21 09:49:00,85.5,63.6,29.09,SSW,209,0.3,2.7,48,0.00,,,0.00,WSDL version 420,2013-05-21 13:49:00,
2013-05-21 09:56:00,86.3,62.8,29.09,SSW,206,0.4,2.2,45,0.00,,,0.00,WSDL version 420,2013-05-21 13:56:00,
2013-05-21 10:02:00,86.9,62.9,29.09,SSW,206,1.3,2.9,44,0.00,,,0.00,WSDL version 420,2013-05-21 14:02:00,
2013-05-21 10:08:00,87.5,63.6,29.09,SSW,206,0.0,2.9,45,0.00,,,0.00,WSDL version 420,2013-05-21 14:08:00,
2013-05-21 10:15:00,88.2,62.9,29.09,West,279,0.0,2.2,43,0.00,,,0.00,WSDL version 420,2013-05-21 14:15:00,
2013-05-21 10:22:00,89.3,63.2,29.09,SSW,212,0.2,2.2,42,0.00,,,0.00,WSDL version 420,2013-05-21 14:22:00,
2013-05-21 10:28:00,90.0,63.1,29.09,WSW,250,0.0,1.6,41,-99.99,,,-99.99,WSDL version 420,2013-05-21 14:28:00,
2013-05-21 10:34:00,89.6,62.3,29.09,WSW,251,0.3,2.2,40,0.00,,,0.00,WSDL version 420,2013-05-21 14:34:00,
2013-05-21 10:40:00,88.2,61.2,29.09,SW,233,0.0,2.2,41,0.00,,,0.00,WSDL version 420,2013-05-21 14:40:00,
2013-05-21 10:46:00,88.2,61.9,29.09,SSW,203,0.0,1.1,42,-99.99,,,-99.99,WSDL version 420,2013-05-21 14:46:00,
2013-05-21 10:52:00,89.6,63.5,29.09,South,190,0.4,1.3,42,0.00,,,0.00,WSDL version 420,2013-05-21 14:52:00,
2013-05-21 10:58:00,91.2,62.8,29.09,South,188,1.0,3.1,38,0.00,,,0.00,WSDL version 420,2013-05-21 14:58:00,
2013-05-21 11:04:00,90.5,61.8,29.09,SW,214,0.2,2.5,39,-99.99,,,-99.99,WSDL version 420,2013-05-21 15:04:00,
2013-05-21 11:10:00,89.6,61.4,29.09,SW,219,0.4,2.5,39,0.00,,,0.00,WSDL version 420,2013-05-21 15:10:00,
2013-05-21 11:15:00,90.6,62.7,29.06,South,190,0.0,2.5,40,0.00,,,0.00,WSDL version 420,2013-05-21 15:15:00,
2013-05-21 11:21:00,92.1,63.1,29.06,SW,228,0.2,2.2,38,0.00,,,0.00,WSDL version 420,2013-05-21 15:21:00,
2013-05-21 11:27:00,92.3,62.5,29.09,WSW,254,0.0,1.6,37,-99.99,,,-99.99,WSDL version 420,2013-05-21 15:27:00,
2013-05-21 11:33:00,91.5,61.8,29.09,ESE,119,1.0,1.6,38,0.00,,,0.00,WSDL version 420,2013-05-21 15:33:00,
2013-05-21 11:39:00,92.8,62.9,29.09,WNW,293,0.2,3.1,37,-99.99,,,-99.99,WSDL version 420,2013-05-21 15:39:00,
2013-05-21 11:45:00,94.2,63.2,29.06,SW,225,0.3,3.1,36,-99.99,,,-99.99,WSDL version 420,2013-05-21 15:45:00,
2013-05-21 11:51:00,94.7,62.0,29.06,SW,219,1.2,2.7,35,0.00,,,0.00,WSDL version 420,2013-05-21 15:51:00,
2013-05-21 11:57:00,95.2,62.2,29.09,WSW,239,0.5,2.0,34,-99.99,,,-99.99,WSDL version 420,2013-05-21 15:57:00,
2013-05-21 12:03:00,95.9,61.1,29.09,South,186,1.0,4.5,32,0.00,,,0.00,WSDL version 420,2013-05-21 16:03:00,
2013-05-21 12:09:00,96.3,60.7,29.09,WSW,254,2.0,4.3,30,-99.99,,,-99.99,WSDL version 420,2013-05-21 16:09:00,
2013-05-21 12:14:00,95.9,59.0,29.09,SSW,212,1.5,4.3,29,0.00,,,0.00,WSDL version 420,2013-05-21 16:14:00,
2013-05-21 12:20:00,95.7,59.0,29.09,SW,214,2.1,5.6,29,0.00,,,0.00,WSDL version 420,2013-05-21 16:20:00,
2013-05-21 12:26:00,94.8,58.6,29.09,WSW,243,1.9,5.6,30,-99.99,,,-99.99,WSDL version 420,2013-05-21 16:26:00,
2013-05-21 12:32:00,95.6,60.0,29.06,WSW,241,1.0,3.6,31,0.00,,,0.00,WSDL version 420,2013-05-21 16:32:00,
2013-05-21 12:38:00,96.3,60.2,29.06,WSW,238,1.2,3.4,30,0.00,,,0.00,WSDL version 420,2013-05-21 16:38:00,
2013-05-21 12:44:00,96.8,59.1,29.06,WSW,240,1.2,3.6,29,0.00,,,0.00,WSDL version 420,2013-05-21 16:44:00,
2013-05-21 12:50:00,96.1,58.7,29.06,West,261,1.3,3.6,29,0.00,,,0.00,WSDL version 420,2013-05-21 16:50:00,
2013-05-21 12:56:00,95.1,57.9,29.06,South,183,0.8,3.1,29,0.00,,,0.00,WSDL version 420,2013-05-21 16:56:00,
2013-05-21 13:02:00,93.5,57.4,29.03,SE,138,0.4,3.1,30,0.00,,,0.00,WSDL version 420,2013-05-21 17:02:00,
2013-05-21 13:08:00,92.3,56.6,29.03,West,281,0.0,2.2,30,-99.99,,,-99.99,WSDL version 420,2013-05-21 17:08:00,
2013-05-21 13:16:00,90.3,55.6,29.03,WSW,257,0.0,2.2,31,0.00,,,0.00,WSDL version 420,2013-05-21 17:16:00,
2013-05-21 13:22:00,89.3,55.6,29.03,SW,222,0.6,3.8,32,0.00,,,0.00,WSDL version 420,2013-05-21 17:22:00,
2013-05-21 13:27:00,88.7,55.7,29.03,WSW,238,0.4,3.8,33,0.00,,,0.00,WSDL version 420,2013-05-21 17:27:00,
2013-05-21 13:33:00,88.3,56.4,29.03,NW,311,0.0,2.2,34,0.00,,,0.00,WSDL version 420,2013-05-21 17:33:00,
2013-05-21 13:39:00,88.3,57.8,29.03,NE,42,2.3,4.0,36,0.00,,,0.00,WSDL version 420,2013-05-21 17:39:00,
2013-05-21 13:45:00,87.2,57.0,29.03,ENE,61,1.3,6.0,36,0.00,,,0.00,WSDL version 420,2013-05-21 17:45:00,
2013-05-21 13:51:00,86.6,57.1,29.03,NNW,328,1.0,4.0,37,0.00,,,0.00,WSDL version 420,2013-05-21 17:51:00,
2013-05-21 13:57:00,85.5,56.7,29.03,NNE,23,3.0,5.4,38,0.00,,,0.00,WSDL version 420,2013-05-21 17:57:00,
2013-05-21 14:03:00,84.6,56.9,29.03,North,360,0.4,5.4,39,0.00,,,0.00,WSDL version 420,2013-05-21 18:03:00,
2013-05-21 14:08:00,84.5,57.5,29.03,North,351,0.0,2.0,40,0.00,,,0.00,WSDL version 420,2013-05-21 18:08:00,
2013-05-21 14:14:00,84.7,58.5,29.03,North,354,0.0,2.2,41,0.00,,,0.00,WSDL version 420,2013-05-21 18:14:00,
2013-05-21 14:20:00,85.5,59.8,29.03,ENE,63,2.5,8.7,42,-99.99,,,-99.99,WSDL version 420,2013-05-21 18:20:00,
2013-05-21 14:26:00,86.5,60.7,29.03,East,100,1.3,4.9,42,0.00,,,0.00,WSDL version 420,2013-05-21 18:26:00,
2013-05-21 14:32:00,86.9,61.0,29.03,ENE,68,1.5,5.8,42,-99.99,,,-99.99,WSDL version 420,2013-05-21 18:32:00,
2013-05-21 14:38:00,87.4,61.5,29.03,ENE,71,0.6,3.1,42,0.00,,,0.00,WSDL version 420,2013-05-21 18:38:00,
2013-05-21 14:44:00,87.4,61.6,29.00,ESE,109,0.9,2.7,42,0.00,,,0.00,WSDL version 420,2013-05-21 18:44:00,
2013-05-21 14:50:00,87.0,60.9,29.00,NNW,345,0.0,3.1,41,-99.99,,,-99.99,WSDL version 420,2013-05-21 18:50:00,
2013-05-21 14:56:00,87.4,60.9,29.00,ENE,71,0.4,3.6,41,0.00,,,0.00,WSDL version 420,2013-05-21 18:56:00,
2013-05-21 15:02:00,87.5,60.7,29.00,SE,131,0.3,2.7,40,0.00,,,0.00,WSDL version 420,2013-05-21 19:02:00,
2013-05-21 15:08:00,88.2,60.8,29.00,ENE,65,0.3,3.1,40,0.00,,,0.00,WSDL version 420,2013-05-21 19:08:00,
2013-05-21 15:13:00,88.0,59.9,-100.00,ENE,68,1.1,3.1,39,-99.99,,,-99.99,WSDL version 420,2013-05-21 19:13:00,
2013-05-21 15:19:00,87.7,59.8,29.00,East,79,0.0,1.6,39,0.00,,,0.00,WSDL version 420,2013-05-21 19:19:00,
2013-05-21 15:25:00,88.2,60.3,29.00,ENE,74,0.0,2.2,39,0.00,,,0.00,WSDL version 420,2013-05-21 19:25:00,
2013-05-21 15:31:00,88.4,60.3,29.00,SSE,150,1.0,2.2,39,0.00,,,0.00,WSDL version 420,2013-05-21 19:31:00,
2013-05-21 15:37:00,88.1,59.6,29.00,SE,140,0.0,2.2,39,0.00,,,0.00,WSDL version 420,2013-05-21 19:37:00,
2013-05-21 15:43:00,87.7,59.2,29.00,South,180,0.0,2.0,39,-99.99,,,-99.99,WSDL version 420,2013-05-21 19:43:00,
2013-05-21 15:50:00,87.6,59.6,29.00,SE,143,0.0,0.9,39,-99.99,,,-99.99,WSDL version 420,2013-05-21 19:50:00,
2013-05-21 15:55:00,87.4,59.4,29.00,WSW,248,0.0,1.1,39,0.00,,,0.00,WSDL version 420,2013-05-21 19:55:00,
2013-05-21 16:01:00,87.3,60.0,29.00,SSE,165,1.3,2.5,40,0.00,,,0.00,WSDL version 420,2013-05-21 20:01:00,
2013-05-21 16:07:00,88.0,59.1,29.00,NW,312,0.0,2.5,38,0.00,,,0.00,WSDL version 420,2013-05-21 20:07:00,
2013-05-21 16:13:00,88.7,59.3,29.00,WNW,293,0.0,1.1,37,0.00,,,0.00,WSDL version 420,2013-05-21 20:13:00,
2013-05-21 16:19:00,88.4,57.9,29.00,SSW,205,0.0,1.1,36,0.00,,,0.00,WSDL version 420,2013-05-21 20:19:00,
2013-05-21 16:25:00,87.9,56.8,29.00,WSW,254,0.0,2.7,35,-99.99,,,-99.99,WSDL version 420,2013-05-21 20:25:00,
2013-05-21 16:31:00,87.9,56.6,28.97,WNW,299,0.0,2.9,35,0.00,,,0.00,WSDL version 420,2013-05-21 20:31:00,
2013-05-21 16:37:00,88.3,56.4,28.97,SSW,208,1.6,2.9,34,0.00,,,0.00,WSDL version 420,2013-05-21 20:37:00,
2013-05-21 16:43:00,88.2,55.7,28.97,SW,225,1.6,2.5,33,0.00,,,0.00,WSDL version 420,2013-05-21 20:43:00,
2013-05-21 16:48:00,87.7,55.3,28.97,SW,225,1.6,1.6,33,0.00,,,0.00,WSDL version 420,2013-05-21 20:48:00,
2013-05-21 16:54:00,87.2,55.4,28.97,SW,225,0.0,1.6,34,0.00,,,0.00,WSDL version 420,2013-05-21 20:54:00,
2013-05-21 17:00:00,86.8,55.1,28.97,SW,225,0.6,1.6,34,0.00,,,0.00,WSDL version 420,2013-05-21 21:00:00,
2013-05-21 17:06:00,86.3,57.7,28.97,WSW,248,0.0,1.6,39,0.00,,,0.00,WSDL version 420,2013-05-21 21:06:00,
2013-05-21 17:12:00,85.8,58.5,28.94,SSW,206,0.0,1.1,40,0.00,,,0.00,WSDL version 420,2013-05-21 21:12:00,
2013-05-21 17:18:00,85.7,59.1,28.94,SSW,203,0.2,1.6,41,0.00,,,0.00,WSDL version 420,2013-05-21 21:18:00,
2013-05-21 17:24:00,85.6,59.3,28.94,SSW,203,0.0,1.6,41,0.00,,,0.00,WSDL version 420,2013-05-21 21:24:00,
2013-05-21 17:30:00,85.3,58.6,28.94,SSW,203,0.0,0.0,41,0.00,,,0.00,WSDL version 420,2013-05-21 21:30:00,
2013-05-21 17:36:00,84.7,58.4,28.94,SW,225,0.0,0.0,41,0.00,,,0.00,WSDL version 420,2013-05-21 21:36:00,
2013-05-21 17:42:00,83.8,58.3,28.97,SW,225,0.0,0.0,42,0.00,,,0.00,WSDL version 420,2013-05-21 21:42:00,
2013-05-21 17:48:00,83.4,58.4,28.97,WNW,286,0.0,2.2,43,0.00,,,0.00,WSDL version 420,2013-05-21 21:48:00,
2013-05-21 17:53:00,82.7,58.2,28.97,NNW,341,4.3,8.5,43,0.00,,,0.00,WSDL version 420,2013-05-21 21:53:00,
2013-05-21 17:59:00,81.6,57.8,28.97,NNW,341,3.0,8.5,45,0.00,,,0.00,WSDL version 420,2013-05-21 21:59:00,
2013-05-21 18:05:00,81.1,58.0,28.97,NNE,23,2.3,4.3,45,0.00,,,0.00,WSDL version 420,2013-05-21 22:05:00,
2013-05-21 18:11:00,81.0,56.5,28.97,NNW,341,1.4,3.8,43,0.00,,,0.00,WSDL version 420,2013-05-21 22:11:00,
2013-05-21 18:17:00,81.0,56.4,28.97,NNW,338,1.4,3.4,43,0.00,,,0.00,WSDL version 420,2013-05-21 22:17:00,
2013-05-21 18:25:00,80.4,56.5,28.97,NNW,338,1.5,3.4,44,-99.99,,,-99.99,WSDL version 420,2013-05-21 22:25:00,
2013-05-21 18:31:00,80.2,56.6,28.97,NNE,14,0.0,2.5,45,-99.99,,,-99.99,WSDL version 420,2013-05-21 22:31:00,
2013-05-21 18:37:00,80.4,57.2,28.97,ENE,72,0.0,1.1,45,0.00,,,0.00,WSDL version 420,2013-05-21 22:37:00,
2013-05-21 18:43:00,80.4,57.1,28.97,ENE,68,0.0,1.1,45,0.00,,,0.00,WSDL version 420,2013-05-21 22:43:00,
2013-05-21 18:49:00,80.4,57.6,28.97,NE,45,0.0,0.0,46,0.00,,,0.00,WSDL version 420,2013-05-21 22:49:00,
2013-05-21 18:55:00,80.5,57.1,28.97,West,263,0.0,0.0,44,0.00,,,0.00,WSDL version 420,2013-05-21 22:55:00,
2013-05-21 19:01:00,80.4,56.5,28.97,SSE,167,0.0,0.0,44,-99.99,,,-99.99,WSDL version 420,2013-05-21 23:01:00,
2013-05-21 19:06:00,80.2,56.4,28.97,SE,124,0.0,0.0,44,0.00,,,0.00,WSDL version 420,2013-05-21 23:06:00,
2013-05-21 19:12:00,79.9,56.3,28.97,East,100,0.0,0.0,45,-99.99,,,-99.99,WSDL version 420,2013-05-21 23:12:00,
2013-05-21 19:18:00,79.8,56.6,28.97,ENE,68,0.0,0.0,45,0.00,,,0.00,WSDL version 420,2013-05-21 23:18:00,
2013-05-21 19:24:00,79.9,56.5,28.97,ENE,68,0.0,0.0,44,0.00,,,0.00,WSDL version 420,2013-05-21 23:24:00,
2013-05-21 19:30:00,79.9,56.7,28.97,ENE,68,0.0,0.9,45,0.00,,,0.00,WSDL version 420,2013-05-21 23:30:00,
2013-05-21 19:36:00,79.6,56.7,28.97,NE,48,0.0,2.2,46,0.00,,,0.00,WSDL version 420,2013-05-21 23:36:00,
2013-05-21 19:42:00,78.0,59.3,28.97,WNW,293,1.1,3.6,55,0.04,,,0.04,WSDL version 420,2013-05-21 23:42:00,
2013-05-21 19:48:00,75.2,60.1,28.97,South,171,0.2,3.6,61,0.04,,,0.04,WSDL version 420,2013-05-21 23:48:00,
2013-05-21 19:56:00,73.4,60.1,28.97,NE,50,0.2,1.6,63,0.04,,,0.04,WSDL version 420,2013-05-21 23:56:00,
2013-05-21 20:02:00,72.6,59.4,28.97,NNW,333,0.5,2.2,64,-99.99,,,-99.99,WSDL version 420,2013-05-22 00:02:00,
2013-05-21 20:08:00,71.2,60.3,28.97,NW,326,2.0,3.4,70,0.08,,,0.08,WSDL version 420,2013-05-22 00:08:00,
2013-05-21 20:14:00,70.3,63.2,28.97,NNW,330,2.6,6.9,77,0.33,,,0.33,WSDL version 420,2013-05-22 00:14:00,
2013-05-21 20:20:00,69.4,62.8,28.97,NNW,338,1.3,6.0,81,0.37,,,0.37,WSDL version 420,2013-05-22 00:20:00,
2013-05-21 20:26:00,69.2,63.7,28.97,North,360,0.0,2.5,83,0.37,,,0.37,WSDL version 420,2013-05-22 00:26:00,
2013-05-21 20:32:00,68.8,64.0,28.97,NNE,23,0.0,1.1,84,0.37,,,0.37,WSDL version 420,2013-05-22 00:32:00,
2013-05-21 20:38:00,68.7,64.6,28.97,SSE,158,0.0,2.0,88,0.41,,,0.41,WSDL version 420,2013-05-22 00:38:00,
2013-05-21 20:44:00,68.7,65.1,28.97,North,0,0.0,2.0,88,0.37,,,0.41,WSDL version 420,2013-05-22 00:44:00,
2013-05-21 20:49:00,68.5,65.1,28.97,SSW,203,0.0,1.1,89,0.37,,,0.41,WSDL version 420,2013-05-22 00:49:00,
2013-05-21 20:55:00,68.4,65.0,28.94,SW,225,0.9,0.0,90,0.37,,,0.41,WSDL version 420,2013-05-22 00:55:00,
2013-05-21 21:01:00,68.5,65.6,28.94,SW,225,0.9,0.0,91,0.37,,,0.41,WSDL version 420,2013-05-22 01:01:00,
2013-05-21 21:06:00,68.5,65.8,28.94,SW,225,0.9,0.0,91,0.33,,,0.41,WSDL version 420,2013-05-22 01:06:00,
2013-05-21 21:12:00,68.5,65.9,28.97,North,-999,-999.0,-999.0,92,0.12,,,0.41,WSDL version 420,2013-05-22 01:12:00,
2013-05-21 21:20:00,68.5,66.2,28.97,North,-999,-999.0,-999.0,92,0.04,,,0.41,WSDL version 420,2013-05-22 01:20:00,
2013-05-21 21:25:00,68.5,66.1,28.97,North,-999,-999.0,-999.0,92,0.04,,,0.41,WSDL version 420,2013-05-22 01:25:00,
2013-05-21 21:31:00,68.5,66.5,28.97,North,-999,-999.0,-999.0,93,0.04,,,0.41,WSDL version 420,2013-05-22 01:31:00,
2013-05-21 21:36:00,68.4,66.4,28.97,North,-999,-999.0,-999.0,93,0.00,,,0.41,WSDL version 420,2013-05-22 01:36:00,
2013-05-21 21:42:00,68.4,66.4,29.00,NNW,334,0.4,2.9,93,0.05,,,0.46,WSDL version 420,2013-05-22 01:42:00,
2013-05-21 21:48:00,68.2,66.2,29.00,NNW,330,1.4,4.0,93,-99.99,,,-99.99,WSDL version 420,2013-05-22 01:48:00,
2013-05-21 21:54:00,67.8,66.3,29.00,NNW,341,2.0,4.3,96,0.17,,,0.58,WSDL version 420,2013-05-22 01:54:00,
2013-05-21 22:06:00,67.6,66.7,29.00,NNW,338,0.0,2.5,97,-99.99,,,-99.99,WSDL version 420,2013-05-22 02:06:00,
2013-05-21 22:17:00,67.6,67.0,29.00,SW,225,0.0,0.0,98,-99.99,,,-99.99,WSDL version 420,2013-05-22 02:17:00,
2013-05-21 22:23:00,67.7,67.0,29.00,SSW,203,0.0,0.0,98,0.21,,,0.62,WSDL version 420,2013-05-22 02:23:00,
2013-05-21 22:30:00,67.8,67.2,29.00,SSW,203,0.0,0.0,98,-99.99,,,-99.99,WSDL version 420,2013-05-22 02:30:00,